Weather History for KMIW - December, 2012

Change the Weather History Date:

Saturday, December 8, 2012

  Actual Average Record
Temperature  
Mean Temperature 30 °F 25 °F  
Max Temperature 39 °F 34 °F 48 °F (1999)
Min Temperature 21 °F 16 °F -4 °F (2005)
Degree Days  
Heating Degree Days 35 40  
Month to date heating degree days 196 308  
Since 1 July heating degree days 1587 1804  
Cooling Degree Days 0 0  
Month to date cooling degree days 0 0  
Year to date cooling degree days 1082 728  
Moisture  
Dew Point 26 °F    
Average Humidity 76    
Maximum Humidity 88    
Minimum Humidity 64    
Precipitation  
Precipitation 0.02 in 0.04 in 0.15 in (2005)
Month to date precipitation 0.03 0.35  
Sea Level Pressure  
Sea Level Pressure 30.00 in    
Wind  
Wind Speed 7 mph (East)    
Max Wind Speed 15 mph    
Max Gust Speed 18 mph    
Visibility 8 miles    
Events Snow    
T = Trace of Precipitation, MM = Missing Value Source: NWS Daily Summary

Daily Weather History Graph

Daily Weather History Graph

Search for Another Location

Airport or City:

Trip Planner

Search our weather history database for the weather conditions in past years. The results will help you decide how hot, cold, wet, or windy it might be!

Date:

Astronomy

Dec. 08, 2012 Rise Set
Actual Time 7:27 AM CST 4:39 PM CST
Civil Twilight 6:56 AM CST 5:11 PM CST
Nautical Twilight 6:21 AM CST 5:46 PM CST
Astronomical Twilight 5:47 AM CST 6:20 PM CST
Moon 1:48 AM CST (12/8) 1:14 PM CST (12/8)
Length of Visible Light 10h 15m
Length of Day
9h 11m
Waning Crescent, 28% of the Moon is Illuminated
Dec 8
Waning Crescent
Dec 13
New
Dec 19
First Quarter
Dec 28
Full
Jan 4
Last Quarter

Hourly Weather History & Observations

Time (CST) Temp. Windchill Dew Point Humidity Pressure Visibility Wind Dir Wind Speed Gust Speed Precip Events Conditions
12:53 AM 30.0 °F 24.1 °F 24.1 °F 79% 29.98 in 10.0 mi North 5.8 mph - N/A   Clear
1:53 AM 30.0 °F 24.1 °F 24.1 °F 79% 29.98 in 10.0 mi North 5.8 mph - N/A   Overcast
2:53 AM 27.0 °F 20.5 °F 21.9 °F 81% 29.99 in 10.0 mi North 5.8 mph - N/A   Mostly Cloudy
3:53 AM 25.0 °F 18.1 °F 21.0 °F 85% 29.99 in 10.0 mi NNE 5.8 mph - N/A   Mostly Cloudy
5:53 AM 21.9 °F 14.5 °F 18.0 °F 85% 30.01 in 10.0 mi NNE 5.8 mph - N/A   Clear
6:53 AM 21.0 °F - 18.0 °F 88% 30.03 in 10.0 mi Calm Calm - N/A   Clear
7:31 AM 23.0 °F - 19.4 °F 86% 30.00 in 10.0 mi Calm Calm - N/A   Mostly Cloudy
7:46 AM 21.2 °F 14.9 °F 19.4 °F 93% 30.00 in 10.0 mi NE 4.6 mph - N/A   Scattered Clouds
7:53 AM 23.0 °F 18.4 °F 19.9 °F 88% 30.04 in 10.0 mi ENE 3.5 mph - N/A   Partly Cloudy
8:53 AM 28.9 °F 21.9 °F 24.1 °F 82% 30.04 in 10.0 mi NE 6.9 mph - N/A   Clear
9:53 AM 33.1 °F 27.7 °F 25.0 °F 72% 30.05 in 10.0 mi East 5.8 mph - N/A   Clear
10:53 AM 35.1 °F 30.1 °F 26.1 °F 70% 30.05 in 10.0 mi East 5.8 mph - N/A   Clear
11:53 AM 37.0 °F 32.4 °F 27.0 °F 67% 30.02 in 10.0 mi East 5.8 mph - N/A   Clear
12:53 PM 37.9 °F 33.5 °F 28.0 °F 68% 30.01 in 10.0 mi ESE 5.8 mph - N/A   Clear
1:53 PM 37.9 °F 31.5 °F 27.0 °F 65% 30.00 in 10.0 mi SE 9.2 mph - N/A   Clear
2:53 PM 37.9 °F 31.5 °F 27.0 °F 65% 30.00 in 10.0 mi ESE 9.2 mph - N/A   Clear
3:53 PM 37.9 °F 32.7 °F 27.0 °F 65% 30.00 in 10.0 mi ESE 6.9 mph - N/A   Scattered Clouds
4:53 PM 36.0 °F 29.0 °F 27.0 °F 70% 29.99 in 10.0 mi ESE 9.2 mph - N/A   Mostly Cloudy
5:53 PM 35.1 °F 29.3 °F 27.0 °F 72% 30.01 in 10.0 mi ESE 6.9 mph - N/A   Partly Cloudy
7:53 PM 36.0 °F 27.5 °F 28.9 °F 76% 30.00 in 10.0 mi ESE 12.7 mph - N/A   Overcast
8:53 PM 36.0 °F 27.5 °F 30.0 °F 79% 30.00 in 10.0 mi ESE 12.7 mph - N/A   Overcast
9:32 PM 35.6 °F 28.0 °F 32.0 °F 87% 29.98 in 5.0 mi SE 10.4 mph - 0.00 in Snow Light Snow
9:46 PM 33.8 °F 26.4 °F 32.0 °F 93% 29.99 in 2.5 mi SE 9.2 mph - 0.00 in Snow Light Snow
9:53 PM 34.0 °F 28.0 °F 32.0 °F 92% 30.01 in 1.8 mi SE 6.9 mph - 0.01 in Snow Light Snow
10:33 PM 33.8 °F 26.4 °F 32.0 °F 93% 29.97 in 2.0 mi ESE 9.2 mph - 0.01 in Snow Light Snow
10:53 PM 33.1 °F 24.9 °F 32.0 °F 96% 29.99 in 3.0 mi ESE 10.4 mph - 0.01 in   Overcast
11:00 PM 33.8 °F 25.8 °F 32.0 °F 93% 29.97 in 3.0 mi ESE 10.4 mph - N/A   Overcast
11:53 PM 33.1 °F 24.4 °F 32.0 °F 96% 29.98 in 5.0 mi East 11.5 mph - N/A   Overcast